Regional Weather Roundup
Issued by NWS Charleston, SC

Current Version | Previous Version | Graphics & Text | Print | Product List | Glossary On
Versions: 1 2 3 4 5 6 7 8 9 10 11 12 13 14 15 16 17 18 19 20 21 22 23 24 25 26 27 28 29 30 31 32 33 34 35 36 37 38 39 40 41 42 43 44 45 46 47 48 49 50
000 ASUS42 KCHS 231610 RWRCHS REGIONAL WEATHER ROUNDUP NATIONAL WEATHER SERVICE CHARLESTON SC 1200 PM EDT SAT AUG 23 2014 NOTE: "FAIR" INDICATES FEW OR NO CLOUDS BELOW 12,000 FEET WITH NO SIGNIFICANT WEATHER AND/OR OBSTRUCTIONS TO VISIBILITY. NOT ALL STATIONS ARE QUALITY CONTROLLED BY THE NATIONAL WEATHER SERVICE. USE DATA WITH CAUTION...ESPECIALLY DEWPOINT OBSERVATIONS. SCZ027-030-031-034>040-042>050-231700- ...SOUTH CAROLINA... CITY SKY/WX TMP DP RH WIND PRES REMARKS N CHARLESTON MOSUNNY 96 73 47 VRB6 29.92S HX 105 WATERFRONT PRK N/A 91 N/A N/A SW6 N/A FORT JOHNSON NOT AVBL MOUNT PLEASANT FAIR 97 73 46 NW7 29.91F HX 107 JOHNS ISLAND SUNNY 95 75 52 W5 29.92F HX 107 PINOPOLIS N/A 93 75 55 CALM 29.86S HX 104 MONCKS CORNER NOT AVBL SUMMERVILLE FAIR 93 73 52 W6 29.93S HX 102 BEAUFORT MCAS SUNNY 94 73 50 VRB7 29.92F HX 103 BEAUFORT ARPT FAIR 93 73 52 NW9 29.92F HX 102 HILTON HEAD IS SUNNY 91 70 49 W9 29.94F HX 97 GEORGETOWN NOT AVBL WALTERBORO SUNNY 93 66 40 NW6 29.93F HX 96 ORANGEBURG SUNNY 92 70 48 NW5 29.94S HX 97 BARNWELL FAIR 93 72 49 NW6 29.94F HX 100 AIKEN FAIR 93 72 49 N8 29.99F HX 100 MANNING FAIR 90 79 70 NW3 29.93S HX 105 KINGSTREE NOT AVBL COLUMBIA MOSUNNY 94 70 45 NE6 29.93F HX 100 SUMTER MOSUNNY 89 74 62 N9 29.93F HX 98 FLORENCE MOSUNNY 91 73 55 VRB5 29.93F HX 99 MYRTLE BEACH MOSUNNY 91 79 66 SE8 29.91F HX 107 N MYRTLE BEACH SUNNY 89 79 72 E5 29.91F HX 104 $$ GAZ063-065-086>088-099>101-113>116-118-119-134-136>141-150-231700- ...GEORGIA... CITY SKY/WX TMP DP RH WIND PRES REMARKS SAVANNAH ARPT MOSUNNY 95 71 45 NW7 29.94F HX 102 HUNTER AAF SUNNY 95 74 51 W10 29.92F HX 105 FORT STEWART SUNNY 96 72 45 VRB6 29.94F HX 104 STATESBORO NOT AVBL SYLVANIA SUNNY 94 74 52 NW12 29.95F HX 104 CLAXTON FAIR 95 75 52 NW10 29.95F HX 107 THOMSON SUNNY 92 76 58 CALM 30.01F HX 105 AUGUSTA-BUSH SUNNY 94 71 47 N7 29.94F HX 101 AUGUSTA-DANIEL SUNNY 93 69 45 NW8 29.97F HX 98 SWAINSBORO FAIR 95 73 49 NW8 29.97F HX 105 VIDALIA N/A 95 72 46 NW8 29.97F HX 103 ALMA SUNNY 95 72 47 N7 29.97F HX 103 WAYCROSS SUNNY 98 76 49 N9 29.97F HX 111 JESUP N/A 97 73 46 N5 29.96F HX 107 BRUNSWICK SUNNY 95 70 43 W9 29.96F HX 101 SAINT SIMONS SUNNY 95 71 45 N8 29.95F HX 102 $$ SCZ027-028-034-036>038-045-046-048>050-GAZ119-141-231700- ...LAKE AND SUPPLEMENTAL COASTAL OBSERVATIONS... STATION/POSITION TIME TEMP WIND PRES WAVE SWELL AIR SEA DIR/SP/G HT/PER HT/PER/DIR (UTC) (F) (DEG/KT/KT) (MB) (FT/S) (FT/S/D) UPR LAKE MARION NOT AVBL WINYAH BAY 1500 90 350/ 2 1013.0S LAKE MURRAY 1500 91 CALM / 2 1013.5F ACE BASIN NERRS 1500 91 320/ 2 1014.0S FORT PULASKI 1600 90 280/ 9/ 11 1014.0F SAPELO ISLAND 1500 93 350/ 5 1015.0S $$ ANZ835-935-AMZ111-154-330-350-352-354-374-450-454-472-231700- ...C-MAN AND BUOY OBSERVATIONS... STATION/POSITION TIME TEMP WIND PRES WAVE SWELL AIR SEA DIR/SP/G HT/PER HT/PER/DIR (UTC) (F) (DEG/KT/KT) (MB) (FT/S) (FT/S/D) FOLLY BEACH CMAN 1500 91 300/ 4/ 5 1013.6F BUOY 41004 1600 85 85 270/ 8/ 8 1012.6F 2/ 4 2/ 5 BUOY 41008 1600 87 86 310/ 8/ 8 1014.1F 1/ 3 5E ST. MARYS GA 1600 84 N/A 1/ 9 FRYING PAN BUOY NOT AVBL BUOY 41025 1600 78 350/ 8/ 10 1014.4R 2/ 8 2/ 40/ 8 CAPE LOOKOUT NC 1500 79 40/ 4/ 5 1014.5R BUOY 41002 1511 82 82 290/ 4/ 6 1015.3 3/ 4 2/320/ 4 BUOY 41010 1600 84 86 210/ 6/ 8 1015.4F 2/ 6 2/150/ 6 BUOY 41012 NOT AVBL ST AUGUSTINE FL 1600 90 330/ 8/ 9 1015.5F CAPERS NEARSHORE 1500 89 290/ 4/ 4 N/A FRIPP NEARSHORE NOT AVBL $$

USA.gov is the U.S. government's official web portal to all federal, state and local government web resources and services.